Weather History for Winchester, TN

Change the Weather History Date:

Monday, December 2, 2013

  Actual Average (KTHA) Record (KTHA)
Temperature  
Mean Temperature 48 °F -  
Max Temperature 51 °F 54 °F 53 °F (2014)
Min Temperature 44 °F 34 °F 44 °F (2013)
Degree Days  
Heating Degree Days 18    
Moisture  
Dew Point 46 °F    
Average Humidity 94    
Maximum Humidity 100    
Minimum Humidity 66    
Precipitation  
Precipitation 0.00 in - - ()
Sea Level Pressure  
Sea Level Pressure 29.87 in    
Wind  
Wind Speed 4 mph (SE)    
Max Wind Speed 8 mph    
Max Gust Speed -    
Visibility 7 miles    
Events      
Averages and records for this station are not official NWS values.
T = Trace of Precipitation, MM = Missing Value Source: NWS Daily Summary

Daily Weather History Graph

Daily Weather History Graph

Search for Another Location

Airport:

Trip Planner

Search our weather history database for the weather conditions in past years. The results will help you decide how hot, cold, wet, or windy it might be!

Date:

Astronomy

Dec. 02, 2013 Rise Set
Actual Time 7:35 AM EST 5:32 PM EST
Civil Twilight 7:07 AM EST 5:59 PM EST
Nautical Twilight 6:36 AM EST 6:31 PM EST
Astronomical Twilight 6:05 AM EST 7:01 PM EST
Moon 7:01 AM EST (12/2) 5:33 PM EST (12/2)
Length of Visible Light 10h 52m
Length of Day
9h 56m
Waning Crescent, 0% of the Moon is Illuminated
Dec 2
Waning Crescent
Dec 2
New
Dec 9
First Quarter
Dec 17
Full
Dec 25
Last Quarter

Hourly Weather History & Observations

Time (EST) Temp. Windchill Dew Point Humidity Pressure Visibility Wind Dir Wind Speed Gust Speed Precip Events Conditions
12:35 AM 48.2 °F - 37.4 °F 66% 29.99 in 10.0 mi Calm Calm - N/A   Overcast
12:55 AM 48.2 °F - 37.4 °F 66% 29.98 in 10.0 mi Calm Calm - N/A   Overcast
1:15 AM 48.2 °F - 39.2 °F 71% 29.99 in 10.0 mi Calm Calm - N/A   Overcast
1:35 AM 48.2 °F - 39.2 °F 71% 29.98 in 10.0 mi Calm Calm - N/A   Overcast
1:55 AM 46.4 °F - 41.0 °F 81% 29.98 in 9.0 mi Calm Calm - N/A   Overcast
2:15 AM 46.4 °F - 42.8 °F 87% 29.98 in 9.0 mi Calm Calm - N/A   Overcast
2:35 AM 46.4 °F - 44.6 °F 93% 29.98 in 6.0 mi Calm Calm - N/A   Overcast
2:55 AM 44.6 °F 42.2 °F 44.6 °F 100% 29.97 in 7.0 mi SE 4.6 mph - N/A   Overcast
3:15 AM 44.6 °F 42.2 °F 42.8 °F 93% 29.97 in 7.0 mi SE 4.6 mph - N/A   Overcast
3:35 AM 44.6 °F 42.2 °F 44.6 °F 100% 29.95 in 5.0 mi ESE 4.6 mph - N/A   Overcast
3:55 AM 44.6 °F 43.1 °F 42.8 °F 93% 29.94 in 8.0 mi ESE 3.5 mph - N/A   Overcast
4:15 AM 44.6 °F 43.1 °F 42.8 °F 93% 29.94 in 10.0 mi ESE 3.5 mph - N/A   Overcast
4:35 AM 44.6 °F 42.2 °F 42.8 °F 93% 29.93 in 9.0 mi ESE 4.6 mph - N/A   Overcast
4:55 AM 44.6 °F 43.1 °F 44.6 °F 100% 29.93 in 10.0 mi ESE 3.5 mph - N/A   Overcast
5:15 AM 44.6 °F 42.2 °F 44.6 °F 100% 29.93 in 9.0 mi ESE 4.6 mph - N/A   Overcast
5:35 AM 44.6 °F 43.1 °F 44.6 °F 100% 29.92 in 9.0 mi SE 3.5 mph - N/A   Overcast
5:55 AM 44.6 °F 43.1 °F 44.6 °F 100% 29.92 in 5.0 mi ESE 3.5 mph - N/A   Overcast
6:15 AM 44.6 °F 42.2 °F 44.6 °F 100% 29.91 in 4.0 mi SE 4.6 mph - N/A   Overcast
6:35 AM 44.6 °F 42.2 °F 44.6 °F 100% 29.91 in 4.0 mi ESE 4.6 mph - N/A   Overcast
6:55 AM 44.6 °F 41.4 °F 44.6 °F 100% 29.90 in 5.0 mi SE 5.8 mph - N/A   Overcast
7:15 AM 44.6 °F 42.2 °F 44.6 °F 100% 29.91 in 6.0 mi ESE 4.6 mph - N/A   Overcast
7:35 AM 44.6 °F 43.1 °F 44.6 °F 100% 29.90 in 2.5 mi SE 3.5 mph - N/A   Overcast
7:55 AM 44.6 °F 42.2 °F 44.6 °F 100% 29.91 in 2.0 mi ESE 4.6 mph - N/A   Overcast
8:15 AM 44.6 °F 42.2 °F 44.6 °F 100% 29.91 in 2.5 mi SE 4.6 mph - N/A   Overcast
8:35 AM 44.6 °F 41.4 °F 44.6 °F 100% 29.91 in 4.0 mi ESE 5.8 mph - N/A   Overcast
8:55 AM 44.6 °F 40.7 °F 44.6 °F 100% 29.91 in 8.0 mi ESE 6.9 mph - N/A   Overcast
9:15 AM 44.6 °F 40.7 °F 44.6 °F 100% 29.90 in 7.0 mi ESE 6.9 mph - N/A   Overcast
9:35 AM 44.6 °F 40.2 °F 44.6 °F 100% 29.90 in 5.0 mi ESE 8.1 mph - N/A   Overcast
9:55 AM 44.6 °F 40.2 °F 44.6 °F 100% 29.89 in 4.0 mi ESE 8.1 mph - N/A   Overcast
10:15 AM 46.4 °F 43.5 °F 44.6 °F 93% 29.89 in 4.0 mi ESE 5.8 mph - N/A   Overcast
10:35 AM 46.4 °F 43.5 °F 46.4 °F 100% 29.90 in 5.0 mi SE 5.8 mph - N/A   Overcast
10:55 AM 46.4 °F 42.9 °F 46.4 °F 100% 29.90 in 8.0 mi SE 6.9 mph - N/A   Overcast
11:15 AM 46.4 °F 43.5 °F 46.4 °F 100% 29.89 in 9.0 mi ESE 5.8 mph - N/A   Overcast
11:35 AM 46.4 °F 43.5 °F 46.4 °F 100% 29.89 in 8.0 mi ESE 5.8 mph - N/A   Overcast
11:55 AM 48.2 °F - 46.4 °F 93% 29.87 in 8.0 mi ESE 8.1 mph - N/A   Overcast
12:15 PM 48.2 °F - 48.2 °F 100% 29.86 in 8.0 mi East 6.9 mph - N/A   Overcast
12:35 PM 50.0 °F - 48.2 °F 94% 29.85 in 10.0 mi ESE 5.8 mph - N/A   Overcast
12:55 PM 50.0 °F - 48.2 °F 94% 29.84 in 10.0 mi East 5.8 mph - N/A   Overcast
1:15 PM 51.8 °F - 48.2 °F 88% 29.83 in 10.0 mi South 5.8 mph - N/A   Overcast
1:35 PM 50.0 °F - 48.2 °F 94% 29.82 in 10.0 mi South 8.1 mph - N/A   Overcast
1:55 PM 51.8 °F - 48.2 °F 88% 29.81 in 10.0 mi East 5.8 mph - N/A   Overcast
2:15 PM 51.8 °F - 48.2 °F 88% 29.81 in 10.0 mi SE 5.8 mph - N/A   Overcast
2:35 PM 51.8 °F - 48.2 °F 88% 29.81 in 10.0 mi SSE 4.6 mph - N/A   Overcast
2:55 PM 51.8 °F - 48.2 °F 88% 29.80 in 10.0 mi SE 5.8 mph - N/A   Overcast
3:15 PM 51.8 °F - 48.2 °F 88% 29.80 in 10.0 mi SE 8.1 mph - N/A   Overcast
3:35 PM 51.8 °F - 48.2 °F 88% 29.80 in 10.0 mi SSE 5.8 mph - N/A   Overcast
3:55 PM 51.8 °F - 48.2 °F 88% 29.79 in 10.0 mi SE 6.9 mph - N/A   Overcast
4:15 PM 50.0 °F - 48.2 °F 94% 29.79 in 10.0 mi SE 8.1 mph - N/A   Overcast
4:35 PM 50.0 °F - 48.2 °F 94% 29.80 in 10.0 mi SSE 6.9 mph - N/A   Overcast
4:55 PM 50.0 °F - 48.2 °F 94% 29.79 in 8.0 mi SE 5.8 mph - N/A   Overcast
5:15 PM 48.2 °F - 48.2 °F 100% 29.80 in 8.0 mi SE 5.8 mph - N/A   Overcast
5:35 PM 48.2 °F - 48.2 °F 100% 29.80 in 7.0 mi SE 6.9 mph - N/A   Overcast
5:55 PM 48.2 °F - 48.2 °F 100% 29.80 in 6.0 mi SE 5.8 mph - N/A   Overcast
6:15 PM 48.2 °F - 48.2 °F 100% 29.79 in 5.0 mi SE 6.9 mph - N/A   Overcast
6:35 PM 48.2 °F - 48.2 °F 100% 29.79 in 5.0 mi SE 5.8 mph - N/A   Overcast
6:55 PM 48.2 °F - 48.2 °F 100% 29.79 in 5.0 mi SE 4.6 mph - N/A   Overcast
7:15 PM 48.2 °F - 48.2 °F 100% 29.79 in 5.0 mi ESE 5.8 mph - N/A   Overcast
7:35 PM 50.0 °F - 48.2 °F 94% 29.80 in 5.0 mi SE 5.8 mph - N/A   Overcast
7:55 PM 50.0 °F - 48.2 °F 94% 29.81 in 5.0 mi SE 4.6 mph - N/A   Overcast
8:15 PM 50.0 °F - 48.2 °F 94% 29.82 in 5.0 mi SSE 5.8 mph - N/A   Overcast
8:35 PM 50.0 °F - 48.2 °F 94% 29.81 in 4.0 mi SE 4.6 mph - N/A   Overcast
8:55 PM 50.0 °F - 48.2 °F 94% 29.82 in 4.0 mi SE 5.8 mph - N/A   Overcast
9:15 PM 48.2 °F - 48.2 °F 100% 29.82 in 3.0 mi SE 4.6 mph - N/A   Overcast
9:35 PM 48.2 °F - 48.2 °F 100% 29.83 in 4.0 mi SE 5.8 mph - N/A   Overcast
9:55 PM 50.0 °F - 48.2 °F 94% 29.82 in 4.0 mi SE 5.8 mph - N/A   Overcast
10:15 PM 50.0 °F - 48.2 °F 94% 29.82 in 5.0 mi SE 4.6 mph - N/A   Overcast
10:35 PM 50.0 °F - 48.2 °F 94% 29.83 in 5.0 mi SE 4.6 mph - N/A   Overcast
10:55 PM 50.0 °F - 48.2 °F 94% 29.83 in 5.0 mi SSE 4.6 mph - N/A   Overcast
11:15 PM 50.0 °F - 50.0 °F 100% 29.83 in 5.0 mi SSE 4.6 mph - N/A   Overcast
11:35 PM 50.0 °F - 50.0 °F 100% 29.83 in 6.0 mi SE 4.6 mph - N/A   Overcast
11:55 PM 50.0 °F - 50.0 °F 100% 29.83 in 5.0 mi SSE 4.6 mph - N/A   Overcast